EKRAN 2 DEB, 59988

Orbit data source: Space-Track

EKRAN 2 DEB, 59988 is space debris in GEO originally from a launch on Tue, 20 Sep 1977 UTC launched from the Tyuratam Missile And Space Complex (TTMTR). Debris objects in space refer to the collection of defunct objects orbiting the Earth. Examples of debris include non-operational satellites, rocket bodies, and fragments generated from explosions, collisions, or faulty payload assembly.

Not visible in the next 10 days
Identifier
59988, 1977-092P
Orbit
GEO
Country
Flag of CISCIS
Related business
Manufacturer
Unknown
Mission
Spacecraft
Bus & Motor
Unknown
Mass
Unknown
Launch date (UTC)
1977-09-20 (48 years ago)
Launch vehicle
Unknown
Launch site
Tyuratam Missile And Space Complex (TTMTR)
Object type
Payload
Rocket body
Debris
Shape & HBR
Unknown shape, 1.1 m
Radar Cross Section
RCS unknown

Expand to show TLE details & history
Last TLE update: 10 hours ago

TLE from 10 hours ago
0 EKRAN 2 DEB
1 59988U 77092P   26061.73878131  .00000059  00000-0  00000+0 0  9990
2 59988   4.2090 272.9596 0051130  65.5743 128.1635  1.00880694 73974
Epoch: 2026-03-02T17:43Z
TLE epoch observation values (Epoch: 2026-03-02T17:43:50.705Z)
Latitude
-1.04614°
Longitude
40.68172°
Altitude
35,750.688 km
Speed
3.071 km/s
True Right ascension
07h 08m 41s
True Declination
-1° 02' 42"
Sunlit
Object was in daylight at epoch
Visualization orbit readout
Latitude
Unknown
Longitude
Unknown
Altitude
Unknown
Speed
Unknown
Apparent Right ascension
Unknown
Apparent Declination
Unknown
Sunlit
N/A
Visualization observer readout
Local Sidereal Time
07:19:29
Azimuth
Unknown
Elevation
Unknown
Doppler factor
Unknown
Orbital elements
Apogee altitude
35,832.546 km
Perigee altitude
35,403.096 km
Semi-major axis
41,995.958 km
Eccentricity
0.00511
Inclination
4.209°
RAAN
272.9596°
Arg. of periapsis
65.5743°
True anomaly
128.62235°
Mean anomaly
128.1635°
Eccentric anomaly
128.39311°
Mean motion
0.25219 °/min
Orbital period
1,427.48 mins
BSTAR
0
Loading maneuver chart data...
Computing Atmospheric mass density...
Loading historical data...
Loading historical data...
Loading historical data...
Loading historical data...
Loading historical data...
Loading historical data...
Loading historical data...

Documentation

Showing up to 5 results
|